User: anonymous   Login
Location: Theydon Bois
(51.6750°N, 0.1050°E)
Time: 09:57:52
(UTC+00:00)
Language:

Cosmos 1733 - Orbit

View from above orbital plane
View from above orbital plane
View from above satellite
View from above satellite

Ground track
Ground track

The orbit data is extracted from the following two-line orbital elements,

1 16611U 86018A   17347.75300379 +.00000407 +00000-0 +19145-4 0  9999
2 16611 082.4903 221.0053 0014165 080.2198 280.0633 15.16574167735933
Epoch (UTC): 13 December 2017 18:04:19
Eccentricity: 0.0014165
inclination: 82.4903°
perigee height: 506 km
apogee height: 526 km
right ascension of ascending node: 221.0053°
argument of perigee: 80.2198°
revolutions per day: 15.16574167
mean anomaly at epoch: 280.0633°
orbit number at epoch: 73593

The dashed part of the orbit path shows where the satellite is in the earth's shadow,  

DLR